sat.trackr.live / text

‹ back to catalog

STARLINK-11232 [DTC]

NORAD 60401 · 2024-141D

PAYLOAD ACTIVE UNKNOWN

§ Identity

Operator
Country
US
Launch date
2024-08-10
Launch site
AFETR
Launch vehicle
Mass (kg)
RCS (m²)

Purposes: comms

External: N2YO · Heavens-Above · Gunter

§ Orbital elements

Epoch: 2026-09-21T06:19:19.304832Z

Period
91.74 min
Inclination
53.1583°
Eccentricity
0.0000803
Mean motion
15.69714044 rev/d
Perigee alt
359.2 km
Apogee alt
360.3 km
Semi-major
6,737.9 km
B*
6.0406e-6
RAAN
201.8844°
Arg perigee
92.2093°
Mean anomaly
267.9017°
Rev number
12,246

§ Raw data

STARLINK-11232 [DTC]1 60401U 24141D   26264.26341788  .00000144  00000+0  60406-5 0  99912 60401  53.1583 201.8844 0000803  92.2093 267.9017 15.69714044122469

JSON: /api/v1/satellites/60401 · /tle

For live sub-satellite position, see the globe view (requires WebGL).

§ Visibility from observer

Set your observer location to see the next 7 days of passes ≥ 10°. The values pass through the URL so the page stays shareable.

No JS? Fill the form by hand. The geolocation button needs JavaScript.